Location: Northeast Philadelphia Airport
(40.0833°N, 75.0000°W)
Time: 08:19:00
(UTC-04:00)

Tiangong 2 - Visible Passes

Search period start: 23 March 2019 00:00
Search period end: 02 April 2019 00:00
Orbit: 380 x 390 km, 42.8° (Epoch: 23 March)

Date Brightness Start Highest point End Pass type
(mag) Time Alt. Az. Time Alt. Az. Time Alt. Az.
23 Mar 2.3 05:55:33 22° SW 05:56:18 25° SSW 05:58:58 10° SSE visible
24 Mar 3.7 04:59:20 14° SE 04:59:20 14° SE 04:59:57 10° SE visible
25 Mar 3.7 05:35:34 10° S 05:35:34 10° S 05:35:39 10° S visible
28 Mar 3.6 20:43:54 10° S 20:44:07 11° S 20:44:07 11° S visible
29 Mar 3.6 21:19:50 10° SW 21:20:30 15° SW 21:20:30 15° SW visible
30 Mar 2.1 20:20:42 10° SSW 20:23:26 28° SSE 20:24:26 23° ESE visible
31 Mar 0.9 20:57:20 10° WSW 21:00:26 80° S 21:00:26 80° S visible
01 Apr 1.4 19:57:56 10° SW 20:00:58 48° SSE 20:04:00 10° E visible
01 Apr 3.2 21:34:37 10° W 21:36:16 27° WNW 21:36:16 27° WNW visible
